sat.trackr.live / text

‹ back to catalog

BEIDOU-3 M24 (C46)

NORAD 44542 · 2019-061A

PAYLOAD ACTIVE UNKNOWN

§ Identity

Operator
Country
PRC
Launch date
2019-09-22
Launch site
XICLF
Launch vehicle
Mass (kg)
RCS (m²)

Purposes: earth_obs, nav

External: N2YO · Heavens-Above · Gunter

§ Orbital elements

Epoch: 2026-09-15T23:42:26.921376Z

Period
773.24 min
Inclination
54.3935°
Eccentricity
0.0009331
Mean motion
1.86229429 rev/d
Perigee alt
21,502.2 km
Apogee alt
21,554.2 km
Semi-major
27,906.3 km
B*
0.0000e+0
RAAN
179.6672°
Arg perigee
13.2260°
Mean anomaly
346.8192°
Rev number
4,748

§ Raw data

BEIDOU-3 M24 (C46)1 44542U 19061A   26258.98781159  .00000002  00000+0  00000+0 0  99972 44542  54.3935 179.6672 0009331  13.2260 346.8192  1.86229429 47487

JSON: /api/v1/satellites/44542 · /tle

For live sub-satellite position, see the globe view (requires WebGL).

§ Visibility from observer

Set your observer location to see the next 7 days of passes ≥ 10°. The values pass through the URL so the page stays shareable.

No JS? Fill the form by hand. The geolocation button needs JavaScript.